#timestamp,LO_Frequency,Hit 
1501786815.3,286046924.4,N
1501786835.1,286046923.7,N
1501786836.0,286046923.7,N
1501786855.8,286046923.2,N
1501786875.7,286046924.2,N
1501786895.5,286046924.4,N
1501786915.3,286046924.2,N
1501786935.1,286046922.9,N
1501786955.9,286046924.2,N
1501786975.7,286046922.2,N
1501786995.5,286046922.5,N
1501787015.4,286046923.1,N
1501787035.2,286046925.6,N
1501787055.0,286046923.5,N
1501787055.9,286046923.5,N
1501787075.8,286046924.2,N
1501787095.6,286046923.8,N
1501787115.4,286046921.7,N
1501787135.3,286046923.8,N
1501787155.1,286046923.7,N
1501787156.0,286046923.7,N
1501787175.8,286046923.2,N
1501787195.6,286046925.6,N
1501787215.5,286046922.9,N
1501787235.3,286046922.9,N
1501787255.1,286046923.7,N
1501787275.9,286046923.4,N
1501787295.7,286046923.2,N
1501787315.5,286046924.0,N
1501787335.4,286046923.4,N
1501787355.2,286046923.1,N
1501787375.0,286046923.9,N
1501787375.9,286046923.9,N
1501787395.8,286046923.6,N
1501787415.6,286046922.9,N
1501787435.4,286046925.7,N
1501787455.2,286046925.9,N
1501787475.1,286046921.3,N
1501787476.0,286046921.3,N
1501787495.8,286046924.0,N
1501787515.6,286046923.7,N
1501787535.5,286046925.7,N
1501787555.3,286046925.8,N
1501787575.1,286046925.9,N
1501787595.9,286046925.2,N
1501787615.7,286046923.0,N
1501787635.5,286046922.3,N
1501787655.4,286046922.6,N
1501787675.2,286046924.4,N
1501787695.0,286046924.3,N
1501787695.9,286046924.3,N
1501787715.7,286046921.6,N
1501787735.6,286046923.8,N
1501787755.4,286046922.7,N
1501787775.2,286046922.2,N
1501787795.1,286046924.2,N
1501787796.0,286046924.2,N
1501787815.8,286046924.1,N
1501787835.6,286046924.1,N
1501787855.5,286046923.1,N
1501787875.3,286046923.2,N
1501787895.1,286046924.1,N
1501787915.9,286046923.6,N
1501787935.7,286046922.0,N
1501787955.5,286046924.4,N
1501787975.4,286046924.3,N
1501787995.2,286046922.5,N
1501788015.0,286046923.8,N
1501788015.9,286046923.8,N
1501788035.7,286046923.1,N
1501788055.6,286046922.6,N
1501788075.4,286046919.8,N
1501788095.2,286046922.5,N
1501788115.1,286046921.5,N
1501788116.0,286046921.5,N
1501788135.8,286046921.9,N
1501788155.6,286046924.0,N
1501788175.5,286046923.8,N
1501788195.3,286046924.4,N
1501788215.1,286046923.7,N
1501788235.9,286046923.3,N
1501788255.7,286046923.1,N
1501788275.5,286046923.5,N
1501788295.4,286046924.3,N
1501788315.2,286046924.1,N
1501788335.0,286046921.9,N
1501788335.9,286046921.9,N
1501788355.7,286046921.7,N
1501788375.6,286046921.4,N
1501788395.4,286046922.5,N
1501788415.2,286046922.3,N
1501788435.1,286046919.7,N
1501788436.0,286046919.7,N
1501788455.8,286046919.7,N
1501788475.6,286046921.6,N
1501788495.5,286046919.7,N
1501788515.3,286046921.7,N
1501788535.1,286046921.5,N
1501788555.9,286046921.9,N
1501788575.7,286046921.5,N
1501788595.5,286046922.5,N
1501788615.3,286046921.7,N
1501788635.2,286046924.3,N
1501788655.0,286046924.3,N
1501788655.9,286046924.3,N
1501788675.7,286046922.1,N
1501788695.6,286046921.3,N
1501788715.4,286046921.6,N
1501788735.2,286046919.9,N
1501788755.1,286046920.1,N
1501788756.0,286046920.1,N
1501788775.8,286046920.2,N
1501788795.6,286046922.4,N
1501788815.5,286046922.7,N
1501788835.3,286046922.4,N
1501788855.1,286046920.1,N
1501788875.9,286046919.9,N
1501788895.7,286046920.2,N
1501788915.5,286046918.2,N
1501788935.3,286046920.9,N
1501788955.2,286046920.8,N
1501788975.0,286046920.3,N
1501788975.9,286046920.3,N
1501788995.7,286046920.1,N
1501789015.6,286046922.3,N
1501789035.4,286046921.9,N
1501789055.2,286046922.0,N
1501789075.1,286046923.3,N
1501789076.0,286046923.3,N
1501789095.8,286046922.8,N
1501789115.6,286046919.0,N
1501789135.5,286046919.1,N
1501789155.3,286046913.3,N
1501789175.1,286046913.7,N
1501789195.9,286046916.4,N
1501789215.7,286046915.9,N
1501789235.5,286046919.0,N
1501789255.3,286046919.0,N
1501789275.2,286046920.6,N
1501789295.9,286046922.4,N
1501789315.7,286046922.3,N
1501789335.6,286046922.3,N
1501789355.4,286046922.5,N
1501789375.2,286046921.4,N
1501789395.1,286046923.6,N
1501789396.0,286046923.6,N
1501789415.8,286046923.6,N
1501789435.6,286046922.9,N
1501789455.5,286046922.9,N
1501789475.3,286046923.6,N
1501789495.1,286046924.7,N
1501789515.9,286046923.3,N
1501789535.7,286046923.4,N
1501789555.5,286046923.5,N
1501789575.3,286046921.5,N
1501789595.2,286046922.4,N
1501789615.0,286046921.4,N
1501789615.9,286046921.4,N
1501789635.7,286046923.6,N
1501789655.6,286046923.7,N
1501789675.4,286046926.0,N
1501789695.2,286046925.7,N
1501789715.1,286046925.5,N
1501789716.0,286046925.5,N
1501789735.8,286046923.6,N
1501789755.6,286046923.5,N
1501789775.5,286046923.8,N
1501789795.3,286046923.2,N
1501789815.1,286046925.6,N
1501789835.8,286046925.3,N
1501789855.7,286046923.0,N
1501789875.5,286046923.5,N
1501789895.3,286046924.4,N
1501789915.2,286046923.4,N
1501789935.9,286046923.7,N
1501789955.7,286046922.9,N
1501789975.6,286046923.1,N
1501789995.4,286046924.2,N
1501790015.2,286046924.1,N
1501790035.1,286046925.2,N
1501790036.0,286046925.2,N
1501790055.8,286046924.9,N
1501790075.6,286046927.6,N
1501790095.4,286046924.6,N
1501790115.3,286046925.8,N
1501790135.1,286046925.1,N
1501790155.8,286046926.0,N
1501790175.7,286046923.6,N
1501790195.5,286046923.8,N
1501790215.3,286046923.5,N
1501790235.2,286046923.8,N
1501790255.9,286046923.4,N
1501790275.7,286046923.7,N
1501790295.6,286046925.6,N
1501790315.4,286046927.2,N
1501790335.2,286046927.5,N
1501790355.0,286046925.1,N
1501790356.0,286046925.1,N
1501790375.8,286046927.0,N
1501790395.6,286046927.2,N
